Wind_Speed
9 11 12 13 15 15 16 17 18 20 22 24 27 29 32 34 36 38 41 43 45 46 47 47 48 48 48 48 50 51 51 51 51 50 51 51 52 52 51 51 51 51 51 51
10 12 14 15 16 16 17 19 20 21 23 25 28 31 34 36 38 41 43 45 46 47 48 48 48 48 48 49 51 51 51 50 51 51 51 51 51 50 50 49 49 48 48 48
12 14 16 16 16 18 19 21 22 23 25 27 30 33 35 38 41 43 45 47 47 48 48 48 48 49 49 50 51 51 50 50 50 51 50 49 49 48 47 46 46 46 46 46
14 16 17 17 18 18 19 21 23 24 26 28 31 34 37 40 43 45 47 48 48 48 48 48 49 50 50 51 51 50 50 50 50 50 49 47 46 45 44 43 43 43 44 44
15 17 19 18 18 20 20 21 23 25 27 29 32 35 39 42 45 48 49 49 49 49 49 49 50 50 51 51 50 50 50 50 50 49 48 46 44 41 40 39 39 39 40 40
17 18 20 20 20 21 22 22 24 26 29 32 34 37 40 43 46 48 49 49 48 48 48 49 50 50 50 50 50 50 50 49 49 47 45 43 40 38 36 35 34 34 35 36
18 19 21 21 22 22 24 25 26 28 31 34 37 40 43 45 47 49 49 49 48 48 48 49 49 50 49 49 50 49 49 49 48 46 44 41 37 34 32 30 29 29 30 31
18 20 22 22 22 23 24 25 27 30 32 35 38 42 45 47 49 50 49 49 48 47 47 48 49 49 49 49 49 49 48 47 46 44 41 37 33 30 28 25 24 24 25 27
19 21 22 22 23 23 24 26 28 30 33 36 39 43 46 48 49 50 49 49 48 47 47 48 49 49 49 49 49 48 47 45 44 42 39 35 31 27 23 20 19 19 20 22
20 21 22 22 23 24 25 26 29 32 34 37 41 44 47 49 50 50 49 49 48 47 47 48 48 48 49 48 48 48 46 44 42 40 37 32 28 24 19 15 14 14 15 18
21 22 22 23 23 24 25 27 30 33 36 39 42 46 48 50 51 50 49 48 48 47 47 47 47 47 47 47 47 46 45 43 40 39 35 30 26 21 17 13 11 10 11 13
22 22 22 23 24 25 27 29 32 34 37 41 44 47 49 50 51 50 49 48 47 46 46 46 46 46 46 46 45 45 44 41 39 37 33 28 23 20 17 13 9 6 6 10
21 22 23 24 25 26 28 30 33 36 39 43 46 48 49 50 50 50 49 47 46 46 45 45 45 45 45 45 44 44 42 40 37 35 31 27 23 19 16 12 8 3 2 6
21 22 23 25 26 28 30 32 35 37 41 44 46 48 49 50 50 49 48 46 45 45 45 44 44 44 43 44 43 42 41 38 36 33 29 26 23 20 16 12 7 3 1 4
23 24 25 26 28 29 31 33 36 39 42 45 47 48 49 49 49 49 47 46 44 44 43 43 42 42 42 42 42 41 39 37 35 31 28 25 23 20 16 12 8 5 2 3
25 26 28 29 30 31 33 35 38 41 43 45 46 47 48 48 49 48 47 45 42 42 41 41 40 40 40 40 40 40 38 36 33 30 27 25 22 20 17 13 10 7 5 4
28 29 30 31 32 33 35 37 39 41 43 45 46 47 47 47 47 46 45 43 41 41 40 39 39 38 39 38 38 37 36 34 32 29 26 24 22 20 18 15 12 10 7 6
31 31 32 33 34 35 36 38 40 42 43 44 45 45 46 46 45 44 43 41 40 39 39 38 37 36 36 36 35 35 34 32 31 29 27 24 21 19 18 16 14 13 11 8
33 34 35 35 36 37 38 39 40 41 42 43 44 45 45 45 44 43 41 40 38 37 36 35 34 34 34 34 33 32 31 30 28 27 26 24 22 19 18 17 16 15 14 13
35 36 37 37 37 38 38 39 40 41 42 42 43 44 44 43 42 41 40 39 37 35 34 33 31 31 31 31 30 29 28 28 26 25 25 24 22 20 19 18 17 16 15 14
37 37 37 38 37 38 38 39 40 41 41 41 42 42 41 41 41 40 38 37 36 34 32 31 29 28 28 28 28 27 26 26 24 23 23 23 22 20 19 19 18 17 17 16
38 38 38 38 38 38 38 39 39 40 40 40 40 41 40 39 39 38 37 35 34 32 30 29 26 25 24 24 24 24 23 23 23 22 21 22 21 20 20 19 19 19 19 19
40 39 39 39 39 38 38 38 39 39 39 39 40 39 38 37 36 36 35 34 32 31 29 27 24 22 21 21 21 21 21 20 20 19 19 20 21 20 19 19 19 19 19 19
42 41 40 40 39 38 38 38 38 38 37 38 37 37 36 35 35 34 34 33 31 29 27 25 23 20 18 18 17 18 18 18 18 17 17 18 18 18 19 19 19 20 20 20
43 42 42 41 39 38 39 39 38 38 37 36 36 36 35 34 34 33 32 31 30 28 25 23 21 18 16 15 14 14 15 15 15 15 15 16 16 16 17 18 18 19 19 20
46 44 43 41 40 41 40 39 38 37 36 36 35 34 33 33 33 32 31 30 28 26 24 22 19 16 14 12 11 10 11 11 12 13 13 13 14 15 15 15 16 16 17 18
49 47 45 43 42 41 40 38 37 36 36 36 35 33 33 32 31 30 29 28 26 25 23 20 18 15 12 11 9 8 7 7 8 9 10 10 11 12 13 14 14 15 16 17
Wind_Direction
315 320 324 327 329 328 326 324 323 322 322 324 325 325 326 327 326 325 325 324 323 323 322 320 319 318 317 315 313 311 308 306 303 301 298 295 291 286 281 277 273 270 267 264
321 323 323 324 326 326 326 326 325 325 325 327 328 327 328 328 328 328 327 327 325 324 323 322 321 321 320 318 316 314 311 309 306 304 301 297 293 288 282 277 272 269 266 261
320 322 321 321 324 326 326 325 326 327 328 330 330 329 329 330 330 330 329 328 327 326 325 324 324 323 322 321 319 317 315 313 310 308 305 301 296 291 285 278 272 266 262 258
317 318 320 320 322 323 325 325 327 329 330 330 332 331 331 332 332 331 330 329 328 328 327 327 326 326 325 324 323 321 319 316 313 311 308 305 299 294 287 279 273 267 261 256
315 317 317 319 321 323 325 326 327 329 330 332 333 334 333 334 334 333 332 331 331 330 330 330 329 329 328 327 326 324 322 320 318 315 311 307 303 296 289 282 274 267 260 254
314 315 316 319 322 324 325 327 330 332 334 335 335 336 336 335 334 334 333 333 333 332 332 332 332 332 331 330 329 328 326 324 322 319 316 311 306 299 292 284 274 266 259 252
311 313 313 318 321 324 327 329 332 334 336 336 336 337 337 336 335 335 335 335 335 334 334 334 335 334 334 333 332 331 330 329 327 325 321 317 311 304 296 286 275 266 258 252
309 309 310 316 318 322 324 328 331 334 335 336 336 337 337 337 336 336 336 336 336 336 336 336 336 337 337 336 336 335 334 333 332 330 328 325 319 311 301 289 279 267 257 249
307 307 309 313 316 320 324 327 330 333 334 336 336 336 337 337 337 337 337 337 337 337 337 338 338 339 339 339 339 339 339 338 337 336 334 330 324 318 309 295 282 269 257 247
305 307 309 312 316 319 323 326 329 331 333 334 335 336 337 338 338 337 338 338 339 339 339 339 340 340 341 341 341 342 343 342 342 341 339 336 333 328 319 306 288 273 256 244
305 307 309 312 315 318 322 325 328 330 331 333 334 335 337 338 338 338 339 339 340 340 340 341 342 343 344 344 344 346 346 346 347 347 347 344 342 338 332 320 302 277 253 239
305 306 308 311 314 318 321 324 326 328 330 332 334 335 337 338 339 340 340 340 341 341 342 342 343 345 346 347 348 349 350 350 351 353 354 353 352 351 346 338 320 288 245 225
302 305 307 310 314 317 320 322 324 327 329 331 333 335 336 337 339 340 341 341 342 343 343 344 345 347 348 349 350 351 353 354 355 356 358 360 359 359 357 355 349 327 235 211
302 305 307 310 313 316 318 321 323 326 328 330 332 334 336 338 339 340 341 341 342 343 344 345 347 348 350 351 353 353 355 356 359 1 4 6 7 8 8 9 14 20 93 181
304 306 309 311 312 314 317 319 322 324 327 329 332 334 336 337 338 339 341 342 343 344 345 347 348 350 351 353 355 356 357 359 1 4 7 10 13 15 17 21 28 37 71 143
305 307 308 309 311 312 315 318 320 323 325 328 331 333 336 337 339 339 340 342 343 344 346 347 349 351 353 355 357 359 0 2 5 7 10 13 18 22 26 34 41 49 69 119
303 304 305 306 308 310 313 316 319 321 323 326 329 331 334 337 338 340 340 341 342 344 346 348 350 352 355 358 359 2 4 7 10 13 15 18 24 28 33 42 49 55 71 99
298 300 302 304 306 308 311 314 317 319 321 324 327 330 333 336 338 339 341 342 342 343 345 348 351 353 356 359 1 4 8 11 15 19 22 25 29 34 38 44 51 58 68 84
294 296 298 300 303 306 308 311 314 317 319 322 325 328 331 334 337 339 340 341 342 342 345 348 350 354 357 360 2 6 10 14 19 24 27 30 35 40 44 48 53 59 67 77
290 292 294 297 300 303 305 308 310 313 317 320 323 326 330 334 336 338 339 341 342 342 344 347 350 354 358 1 3 8 12 17 22 28 31 34 38 42 48 53 59 66 72 79
287 288 291 294 297 299 301 305 308 311 315 319 322 325 329 332 335 336 338 340 341 341 343 346 349 353 357 1 5 9 14 18 23 29 33 35 39 45 51 56 62 68 73 80
285 286 289 292 294 297 299 303 306 309 313 317 319 322 326 330 333 335 337 339 339 340 341 344 347 351 356 1 6 11 16 20 25 30 36 40 45 50 55 61 66 72 76 80
283 284 286 289 291 293 297 300 303 306 310 314 317 320 324 328 331 334 336 337 338 338 339 341 345 348 353 359 6 12 17 22 26 31 38 44 50 55 60 65 70 74 77 79
281 282 283 285 287 289 293 297 300 302 306 310 314 317 321 325 328 331 333 335 335 336 337 338 341 344 349 356 3 11 18 24 29 34 40 46 52 57 63 69 74 78 79 81
278 278 280 282 281 283 287 291 294 297 301 305 309 314 318 322 325 328 330 332 333 333 334 335 338 340 344 351 359 7 17 25 32 38 44 48 53 61 68 74 79 82 84 86
276 276 277 277 277 280 284 287 290 292 296 300 304 309 314 318 322 324 326 328 329 331 331 332 333 335 338 344 352 0 10 22 31 40 47 53 58 64 72 77 82 85 87 89
275 274 274 275 276 277 280 284 286 288 293 296 299 303 308 312 316 320 322 324 326 327 328 328 327 329 329 331 339 350 359 12 26 37 47 57 64 70 75 79 83 87 90 93
Height
5849 5847 5845 5842 5840 5838 5835 5832 5829 5826 5821 5817 5812 5806 5801 5795 5789 5782 5774 5766 5758 5749 5741 5732 5723 5715 5706 5698 5689 5679 5671 5663 5655 5647 5640 5633 5627 5622 5618 5616 5614 5612 5612 5612
5847 5844 5842 5840 5837 5835 5831 5828 5825 5821 5817 5812 5806 5800 5794 5788 5781 5774 5766 5757 5748 5739 5730 5721 5712 5704 5694 5685 5675 5665 5655 5646 5638 5630 5622 5614 5608 5602 5599 5596 5594 5593 5593 5593
5845 5842 5839 5837 5834 5831 5828 5824 5820 5816 5812 5806 5801 5795 5788 5781 5774 5765 5757 5748 5739 5729 5720 5711 5701 5692 5682 5672 5661 5651 5641 5631 5622 5613 5604 5596 5589 5584 5580 5576 5575 5574 5575 5576
5842 5840 5837 5836 5831 5828 5824 5820 5815 5811 5807 5801 5796 5789 5781 5774 5766 5757 5748 5739 5729 5720 5710 5700 5690 5680 5670 5659 5648 5638 5627 5617 5607 5597 5588 5580 5572 5566 5562 5558 5557 5557 5557 5558
5839 5836 5833 5831 5827 5823 5820 5816 5812 5807 5802 5796 5790 5783 5775 5767 5758 5749 5739 5730 5720 5710 5700 5690 5680 5669 5659 5647 5636 5625 5614 5603 5593 5582 5572 5564 5557 5550 5546 5542 5540 5540 5541 5542
5834 5832 5829 5827 5823 5819 5816 5811 5807 5802 5796 5790 5784 5778 5771 5761 5752 5742 5732 5722 5712 5702 5691 5681 5670 5659 5648 5637 5626 5614 5603 5591 5580 5569 5558 5550 5542 5536 5531 5527 5526 5525 5526 5528
5830 5828 5825 5822 5818 5814 5811 5807 5801 5796 5790 5784 5777 5771 5763 5754 5745 5735 5725 5714 5704 5693 5683 5672 5661 5651 5639 5628 5616 5604 5592 5580 5568 5557 5546 5537 5529 5523 5518 5515 5513 5513 5514 5516
5827 5824 5822 5817 5813 5810 5806 5801 5795 5790 5785 5779 5772 5764 5756 5747 5737 5727 5717 5707 5696 5686 5675 5664 5653 5642 5631 5619 5607 5595 5583 5571 5559 5547 5536 5527 5519 5512 5507 5504 5502 5502 5504 5506
5823 5821 5816 5812 5808 5805 5800 5795 5790 5785 5780 5773 5766 5759 5750 5741 5731 5721 5710 5700 5689 5679 5668 5657 5646 5635 5623 5612 5599 5587 5575 5563 5551 5539 5529 5519 5511 5505 5499 5496 5495 5494 5495 5497
5816 5814 5810 5807 5803 5799 5795 5790 5785 5780 5774 5768 5761 5753 5744 5734 5724 5714 5704 5693 5683 5672 5662 5651 5640 5628 5616 5605 5592 5580 5569 5557 5545 5534 5523 5514 5506 5500 5495 5491 5489 5489 5489 5491
5811 5809 5805 5802 5798 5794 5789 5785 5780 5774 5768 5762 5755 5746 5737 5728 5718 5708 5697 5687 5676 5666 5656 5645 5634 5623 5611 5599 5587 5575 5564 5552 5541 5530 5519 5510 5503 5497 5492 5489 5486 5485 5485 5486
5806 5803 5800 5796 5792 5788 5784 5779 5774 5769 5763 5756 5748 5740 5731 5721 5712 5701 5691 5681 5671 5661 5650 5640 5629 5618 5607 5595 5584 5572 5560 5549 5538 5528 5518 5509 5502 5496 5491 5487 5485 5483 5483 5484
5800 5797 5794 5791 5787 5783 5778 5773 5768 5763 5756 5749 5742 5734 5725 5715 5706 5696 5686 5676 5666 5656 5646 5635 5625 5614 5604 5592 5581 5569 5558 5547 5537 5527 5518 5510 5503 5497 5492 5488 5485 5484 5483 5484
5794 5791 5788 5785 5781 5777 5772 5767 5762 5756 5750 5743 5736 5727 5719 5710 5700 5691 5681 5671 5661 5652 5642 5632 5622 5611 5601 5590 5579 5568 5557 5547 5537 5528 5519 5512 5505 5499 5494 5490 5487 5486 5485 5486
5788 5785 5782 5778 5774 5770 5766 5761 5756 5750 5743 5737 5729 5721 5713 5704 5695 5686 5676 5667 5657 5648 5638 5629 5619 5609 5599 5589 5579 5568 5557 5547 5538 5529 5521 5514 5508 5502 5497 5493 5490 5489 5488 5488
5781 5778 5774 5771 5767 5763 5759 5754 5749 5743 5737 5730 5723 5715 5707 5699 5690 5681 5672 5662 5654 5645 5636 5627 5617 5608 5598 5589 5579 5569 5559 5549 5540 5532 5524 5517 5511 5506 5501 5497 5494 5492 5491 5491
5773 5770 5767 5764 5760 5756 5752 5747 5742 5736 5730 5724 5717 5710 5702 5694 5685 5676 5667 5658 5650 5642 5633 5625 5616 5607 5598 5589 5580 5570 5561 5552 5543 5535 5527 5521 5515 5510 5506 5502 5499 5497 5495 5495
5765 5762 5759 5756 5752 5749 5744 5740 5735 5729 5723 5717 5711 5704 5697 5689 5681 5672 5664 5655 5647 5639 5631 5623 5615 5606 5598 5590 5581 5572 5564 5555 5547 5539 5532 5526 5520 5516 5511 5507 5504 5502 5500 5499
5757 5754 5751 5748 5744 5740 5737 5732 5727 5722 5716 5710 5704 5698 5691 5683 5675 5668 5660 5652 5645 5637 5629 5621 5614 5607 5599 5591 5583 5575 5567 5559 5551 5544 5537 5531 5526 5521 5517 5514 5510 5508 5506 5504
5748 5745 5742 5739 5736 5732 5728 5724 5719 5714 5709 5703 5698 5692 5685 5678 5671 5663 5656 5648 5641 5634 5627 5620 5613 5607 5599 5592 5584 5577 5570 5563 5556 5549 5543 5537 5532 5528 5523 5520 5517 5514 5512 5511
5737 5735 5732 5729 5726 5723 5719 5715 5711 5706 5701 5696 5691 5685 5679 5673 5666 5659 5652 5645 5638 5631 5625 5619 5613 5606 5600 5593 5587 5580 5573 5567 5561 5555 5549 5544 5539 5534 5530 5527 5524 5521 5519 5518
5726 5724 5722 5719 5717 5713 5710 5706 5702 5698 5694 5689 5684 5679 5673 5667 5661 5654 5648 5642 5635 5629 5623 5617 5612 5606 5601 5595 5589 5583 5577 5571 5565 5560 5555 5550 5545 5541 5537 5534 5531 5529 5527 5525
5714 5713 5711 5708 5706 5703 5700 5697 5693 5690 5686 5682 5677 5672 5667 5661 5656 5650 5644 5638 5632 5626 5621 5616 5610 5605 5601 5596 5591 5585 5580 5575 5570 5565 5560 5556 5552 5548 5545 5542 5539 5537 5535 5533
5701 5700 5698 5697 5695 5692 5690 5687 5684 5681 5677 5674 5670 5665 5660 5655 5650 5645 5640 5634 5628 5623 5618 5614 5609 5605 5600 5596 5592 5588 5583 5578 5574 5569 5566 5562 5558 5555 5552 5549 5547 5545 5543 5542
5688 5687 5686 5684 5683 5681 5678 5676 5674 5672 5668 5665 5662 5658 5654 5649 5645 5640 5635 5630 5625 5620 5615 5611 5607 5603 5600 5596 5593 5589 5586 5582 5578 5574 5570 5567 5564 5561 5559 5556 5555 5553 5552 5551
5673 5672 5672 5671 5670 5669 5667 5665 5663 5661 5659 5656 5654 5650 5647 5643 5639 5634 5630 5625 5621 5616 5612 5608 5605 5601 5598 5595 5593 5590 5587 5584 5581 5578 5575 5572 5569 5567 5565 5563 5562 5561 5559 5558
5656 5657 5657 5657 5657 5656 5655 5654 5652 5651 5649 5647 5645 5642 5639 5636 5632 5628 5624 5620 5616 5612 5609 5605 5602 5599 5596 5594 5592 5589 5587 5585 5583 5581 5578 5576 5574 5572 5571 5569 5568 5567 5566 5565